Preview of NWS' New Version of Forecast
This preview is not operational and should not be used for support decisions.

Regional Weather Roundup (RWR)

Issued by Gray - Portland, ME (GYX)

                            
000
ASUS41 KGYX 180810
RWRGYX
WEATHER ROUNDUP FOR MAINE AND NEW HAMPSHIRE
NATIONAL WEATHER SERVICE GRAY ME
400 AM EDT SUN AUG 18 2019

MEZ002-005-006-010-012-015-018-020-021-024-026-027-029-180900-
MAINE
  
CITY           SKY/WX    TMP DP  RH WIND       PRES   REMARKS
PORTLAND       CLOUDY    66  65  96 CALM      29.99F FOG              
SANFORD        CLOUDY    67  66  97 SW5       29.99F FOG              
BAR HARBOR     FOG       61  61 100 SE5       29.99F VSB 1/2          
WISCASSET      CLOUDY    64  64 100 CALM      30.00F FOG              
ROCKLAND       FOG       62  62 100 CALM      29.99F VSB 1/4          
FRYEBURG       MOCLDY    65  64  97 CALM      29.99F                  
LEWISTONAUBURN CLOUDY    65  65 100 CALM      30.00S                  
AUGUSTA        FOG       64  64 100 CALM      30.01S VSB 1/2          
WATERVILLE     HVY RAIN  64  64 100 SW3       29.99R FOG              
BANGOR         CLOUDY    64  63  96 E3        30.00F                  
GREENVILLE       N/A     61  61 100 SE3       30.01S                  
MILLINOCKET    LGT RAIN  63  62  97 CALM      30.02F FOG              
HOULTON        LGT RAIN  63  61  93 S5        30.00F                  
PRESQUE ISLE   LGT RAIN  64  62  93 S3        30.01F                  
FRENCHVILLE    LGT RAIN  62  61  96 S6        30.00S                  
CARIBOU        HVY RAIN  64  62  93 SE3       30.00S FOG              
$$

NHZ002-005-008-009-011-012-014-180900-
NEW HAMPSHIRE
  
CITY           SKY/WX    TMP DP  RH WIND       PRES   REMARKS
PORTSMOUTH     CLOUDY    66  66 100 CALM      29.97F                  
ROCHESTER      CLOUDY    66  64  93 CALM      29.98F FOG              
NASHUA         FAIR      66  66 100 CALM      29.99F                  
MANCHESTER     FOG       67  67 100 CALM      29.97F VSB 1/4          
CONCORD        FOG       65  64  97 CALM      29.98F VSB 1/4          
LACONIA        CLOUDY    66  66 100 W3        30.00F                  
PLYMOUTH       CLOUDY    64  62  95 CALM      30.00F FOG              
BERLIN         FOG       62  60  93 CALM      30.00F VSB 1/4          
WHITEFIELD     CLOUDY    64  62  93 CALM      30.01F                  
JAFFREY        CLOUDY    65  63  93 S5        30.02F FOG              
KEENE          CLOUDY    65  65 100 CALM      30.01F                  
LEBANON        CLOUDY    68  63  84 SW5       30.00F                  
MT WASHINGTON  FOG       50  50 100 W37         N/A  VSB 1/8          
$$

VTZ005-007-008-180900-
VERMONT
  
CITY           SKY/WX    TMP DP  RH WIND       PRES   REMARKS
ST JOHNSBURY     N/A     64  64 100 MISG      29.98F                  
MONTPELIER     FAIR      62  62 100 CALM      30.04F                  
BURLINGTON     FAIR      66  63  90 SW7       29.98S                  
$$

MAZ007-012-024-CTZ003-RIZ002-NYZ038-NYZ072-180900-
SOUTHERN NEW ENGLAND AND NY
  
CITY           SKY/WX    TMP DP  RH WIND       PRES   REMARKS
BOSTON         CLOUDY    71  67  87 E3        29.98F                  
WORCESTER      MOCLDY    66  66 100 CALM      30.02S                  
NANTUCKET      CLOUDY    69  68  96 CALM      29.98F                  
PROVIDENCE     CLOUDY    71  71 100 CALM      29.99S FOG              
HARTFORD       CLOUDY    67  66  97 CALM      30.00R FOG              
ALBANY         FOG       67  65  93 SW5       30.00S VSB 1            
NEW YORK CITY  CLOUDY    76  73  91 NE3       29.98S                  
$$

ANZ081-ANZ082-ANZ150-NHZ014-MEZ023>029-180900-
COASTAL MARINE OBSERVATIONS
  
STATION/POSITION TIME  TEMP    WIND        PRES    WAVE
                       AIR SEA DIR/SP/G            HT/PER
                 (UTC) (F)     (DEG/KT/KT) (MB)    (FT/S)
MATINICUS ROCK   0750   61                 1015.1F
ISLE OF SHOALS   0700   67     240/  4/  4 1015.1F
JEFFREYS LEDGE   0738      68                N/A     3/ 8
CASHES LEDGE BUO 0750   65 65  140/  6/  8 1015.7F   2/ 8
GEORGES BANK BUO 0750   71 70  170/  6/  6 1016.0F   3/ 7
$$

.............KEY..............
   WCI - WIND CHILL
   TC  - TEMPERATURE IN CELSIUS
   VSB - VISIBILITY IN MILES
   HX  - HEAT INDEX
   FAIR- INDICATES FEW OR NO CLOUDS BELOW 12,000 FT, WITH NO 
         SIGNIFICANT WEATHER AND/OR OBSTRUCTIONS TO VISIBILITY.